Weather History for KHAO - August, 2013

Change the Weather History Date:

Wednesday, August 28, 2013

  Actual Average (KCVG) Record (KCVG)
Temperature  
Mean Temperature 85 °F 74 °F  
Max Temperature 96 °F 84 °F 98 °F (2007)
Min Temperature 75 °F 63 °F 47 °F (1986)
Degree Days  
Heating Degree Days 0 0  
Month to date heating degree days 0  
Since 1 June heating degree days 15  
Since 1 July heating degree days 0  
Cooling Degree Days 20 9  
Month to date cooling degree days 284  
Year to date cooling degree days 943  
Since 1 June cooling degree days 849  
Growing Degree Days 35 (Base 50)    
Moisture  
Dew Point 72 °F    
Average Humidity 70    
Maximum Humidity 90    
Minimum Humidity 43    
Precipitation  
Precipitation 0.00 in 0.10 in 2.54 in (1974)
Month to date precipitation 3.11  
Year to date precipitation 29.49  
Snow  
Snow 0.00 in 0.00 in - ()
Month to date snowfall 0.0  
Since 1 June snowfall 0.0  
Since 1 July snowfall 0.0  
Snow Depth -    
Sea Level Pressure  
Sea Level Pressure 29.93 in    
Wind  
Wind Speed 4 mph (WNW)    
Max Wind Speed 18 mph    
Max Gust Speed 24 mph    
Visibility 9 miles    
Events      
T = Trace of Precipitation, MM = Missing Value Source: NWS Daily Summary

Daily Weather History Graph

Daily Weather History Graph

Search for Another Location

Airport or City:

Trip Planner

Search our weather history database for the weather conditions in past years. The results will help you decide how hot, cold, wet, or windy it might be!

Date:

Astronomy

Aug. 28, 2013 Rise Set
Actual Time 7:03 AM EDT 8:14 PM EDT
Civil Twilight 6:35 AM EDT 8:42 PM EDT
Nautical Twilight 6:02 AM EDT 9:15 PM EDT
Astronomical Twilight 5:27 AM EDT 9:49 PM EDT
Moon 12:11 AM EDT (8/28) 2:50 PM EDT (8/28)
Length of Visible Light 14h 06m
Length of Day
13h 11m
Waning Gibbous, 47% of the Moon is Illuminated
Aug 28
Waning Gibbous
Sep 5
New
Sep 12
First Quarter
Sep 19
Full
Sep 26
Last Quarter

Hourly Weather History & Observations

Time (EDT) Temp. Heat Index Dew Point Humidity Pressure Visibility Wind Dir Wind Speed Gust Speed Precip Events Conditions
12:53 AM 77.0 °F - 72.0 °F 84% 29.97 in 9.0 mi Calm Calm - N/A   Clear
1:53 AM 75.9 °F - 72.0 °F 87% 29.96 in 8.0 mi Calm Calm - N/A   Clear
2:53 AM 75.9 °F - 72.0 °F 87% 29.96 in 8.0 mi Calm Calm - N/A   Clear
3:53 AM 75.0 °F - 72.0 °F 90% 29.96 in 7.0 mi Calm Calm - N/A   Clear
4:53 AM 75.0 °F - 72.0 °F 90% 29.96 in 7.0 mi West 3.5 mph - N/A   Clear
5:53 AM 75.0 °F - 72.0 °F 90% 29.96 in 7.0 mi West 3.5 mph - N/A   Clear
6:53 AM 75.0 °F - 72.0 °F 90% 29.95 in 7.0 mi West 3.5 mph - N/A   Clear
7:53 AM 75.9 °F - 72.0 °F 87% 29.94 in 6.0 mi Variable 3.5 mph - N/A   Clear
8:53 AM 78.1 °F - 72.0 °F 81% 29.94 in 8.0 mi Variable 4.6 mph - N/A   Clear
9:53 AM 82.9 °F 87.5 °F 71.1 °F 67% 29.92 in 10.0 mi WSW 10.4 mph - N/A   Clear
10:53 AM 87.1 °F 92.0 °F 70.0 °F 57% 29.93 in 10.0 mi West 9.2 mph - N/A   Clear
11:53 AM 90.0 °F 96.4 °F 71.1 °F 54% 29.93 in 10.0 mi West 9.2 mph - N/A   Clear
12:53 PM 93.0 °F 97.9 °F 69.1 °F 45% 29.92 in 10.0 mi WNW 11.5 mph 23.0 mph N/A   Clear
1:53 PM 93.9 °F 98.6 °F 68.0 °F 43% 29.91 in 10.0 mi West 11.5 mph 20.7 mph N/A   Clear
2:53 PM 95.0 °F 100.7 °F 69.1 °F 43% 29.89 in 10.0 mi West 9.2 mph 19.6 mph N/A   Mostly Cloudy
3:53 PM 93.0 °F 99.0 °F 70.0 °F 47% 29.88 in 10.0 mi WNW 13.8 mph - N/A   Mostly Cloudy
4:53 PM 93.0 °F 100.7 °F 72.0 °F 50% 29.88 in 10.0 mi West 8.1 mph - N/A   Overcast
5:53 PM 93.0 °F 101.9 °F 73.0 °F 52% 29.88 in 10.0 mi NW 18.4 mph 24.2 mph 0.00 in   Scattered Clouds
6:53 PM 90.0 °F 99.0 °F 73.9 °F 59% 29.89 in 10.0 mi NNW 10.4 mph - N/A   Partly Cloudy
7:53 PM 87.1 °F 95.4 °F 73.9 °F 65% 29.90 in 10.0 mi North 4.6 mph - N/A   Scattered Clouds
8:53 PM 84.0 °F 90.2 °F 73.0 °F 69% 29.92 in 10.0 mi NNW 6.9 mph - N/A   Partly Cloudy
9:53 PM 81.0 °F 85.8 °F 73.0 °F 77% 29.94 in 10.0 mi NW 4.6 mph - N/A   Partly Cloudy
10:53 PM 80.1 °F 84.5 °F 73.9 °F 81% 29.96 in 10.0 mi NNW 3.5 mph - N/A   Scattered Clouds
11:53 PM 78.1 °F - 73.0 °F 84% 29.97 in 9.0 mi Calm Calm - N/A   Clear